Location: *
(50.2903°S, 172.5375°W)
Time: 12:48:36
(UTC+00:00)

Cosmos 1943 Rocket - Pass Details

Date: 17 November 2019
Orbit: 811 x 845 km, 71.0° (Epoch: 12 December)

Event Time Altitude Azimuth Distance (km) Brightness Sun altitude
Exits shadow 13:56:08 11° 354° (N) 2,345 4.0 -12.2°
Maximum altitude 14:01:18 53° 68° (ENE) 1,012 2.7 -11.6°
Drops below altitude 10° 14:06:43 10° 143° (SE) 2,438 6.2 -11.1°
Sets 14:09:12 0° 147° (SSE) 3,375 7.4 -10.8°
